When you browse on this site, cookies collect data to enhance your experience and personalize the content and advertising you see.
Visit our Privacy Policy to learn more. By continuing to use the site, you agree to this use of cookies and data.
  • In Hungary
  • List of Countries
  • For 7 days
  • Water Temperature
  • Satellite Maps
  • Weather Map
  • News
  • Weather Widgets
  • user-avatar
    Login

    Hourly Weather Kananga

    Today, 21 January, Monday

    Time Temperature Precipitation Wind Pressure Humidity
    00:00 +22°C° 0 mm 0 mps 705 mmHg 24%
    01:00 +22°C° 0 mm 0 mps 705 mmHg 25%
    02:00 +22°C° 0 mm 0 mps 705 mmHg 25%
    03:00 +21°C° 0 mm 0 mps 705 mmHg 25%
    04:00 +23°C° 0 mm 1 mps 705 mmHg 25%
    05:00 +24°C° 0 mm 1 mps 705 mmHg 24%
    06:00 +25°C° 0 mm 1 mps 706 mmHg 24%
    07:00 +26°C° 0 mm 1 mps 706 mmHg 23%
    08:00 +30°C° 0 mm 1 mps 707 mmHg 18%
    09:00 +35°C° 0 mm 2 mps 707 mmHg 14%
    10:00 +40°C° 0 mm 2 mps 708 mmHg 9%
    11:00 +41°C° 0 mm 2 mps 707 mmHg 9%
    12:00 +42°C° 0 mm 2 mps 706 mmHg 8%
    13:00 +45°C° 0 mm 2 mps 705 mmHg 7%
    14:00 +43°C° 0 mm 2 mps 705 mmHg 7%
    15:00 +42°C° 0 mm 2 mps 704 mmHg 8%
    16:00 +42°C° 0 mm 2 mps 703 mmHg 8%
    17:00 +37°C° 0 mm 1 mps 703 mmHg 10%
    18:00 +33°C° 0 mm 1 mps 703 mmHg 12%
    19:00 +30°C° 0 mm 1 mps 703 mmHg 14%
    20:00 +29°C° 0 mm 1 mps 703 mmHg 15%
    21:00 +28°C° 0 mm 1 mps 704 mmHg 16%
    22:00 +27°C° 0 mm 1 mps 704 mmHg 17%
    23:00 +26°C° 0 mm 1 mps 704 mmHg 18%

    Tomorrow, 22 January, Tuesday

    Time Temperature Precipitation Wind Pressure Humidity
    00:00 +23°C° 0 mm 0 mps 703 mmHg 19%
    01:00 +22°C° 0 mm 0 mps 703 mmHg 19%
    02:00 +22°C° 0 mm 0 mps 703 mmHg 20%
    03:00 +23°C° 0 mm 1 mps 703 mmHg 21%
    04:00 +22°C° 0 mm 1 mps 703 mmHg 22%
    05:00 +23°C° 0 mm 1 mps 704 mmHg 21%
    06:00 +23°C° 0 mm 0 mps 705 mmHg 20%
    07:00 +24°C° 0 mm 0 mps 705 mmHg 19%
    08:00 +31°C° 0 mm 1 mps 706 mmHg 15%
    09:00 +36°C° 0 mm 1 mps 706 mmHg 12%
    10:00 +41°C° 0 mm 1 mps 707 mmHg 8%
    11:00 +42°C° 0 mm 1 mps 706 mmHg 8%
    12:00 +43°C° 0 mm 2 mps 705 mmHg 7%
    13:00 +43°C° 0 mm 2 mps 704 mmHg 7%
    14:00 +43°C° 0 mm 2 mps 703 mmHg 7%
    15:00 +42°C° 0 mm 2 mps 703 mmHg 7%
    16:00 +41°C° 0 mm 2 mps 702 mmHg 8%
    17:00 +38°C° 0 mm 2 mps 702 mmHg 10%
    18:00 +35°C° 0 mm 2 mps 702 mmHg 12%
    19:00 +30°C° 0 mm 1 mps 702 mmHg 14%
    20:00 +29°C° 0 mm 1 mps 703 mmHg 15%
    21:00 +28°C° 0 mm 1 mps 703 mmHg 16%
    22:00 +27°C° 0 mm 1 mps 703 mmHg 17%
    23:00 +27°C° 0 mm 1 mps 703 mmHg 17%

    Day after tomorrow, 23 January, Wednesday

    Time Temperature Precipitation Wind Pressure Humidity
    00:00 +26°C° 0 mm 1 mps 703 mmHg 18%
    01:00 +25°C° 0 mm 1 mps 702 mmHg 19%
    02:00 +24°C° 0 mm 1 mps 702 mmHg 20%
    03:00 +23°C° 0 mm 1 mps 702 mmHg 21%
    04:00 +23°C° 0 mm 1 mps 702 mmHg 22%
    05:00 +24°C° 0 mm 1 mps 703 mmHg 20%
    06:00 +26°C° 0 mm 1 mps 704 mmHg 19%
    07:00 +28°C° 0 mm 1 mps 705 mmHg 17%
    08:00 +32°C° 0 mm 1 mps 705 mmHg 14%
    09:00 +36°C° 0 mm 1 mps 706 mmHg 10%
    10:00 +42°C° 0 mm 2 mps 707 mmHg 7%
    11:00 +44°C° 0 mm 1 mps 706 mmHg 6%
    12:00 +46°C° 0 mm 1 mps 705 mmHg 6%
    13:00 +45°C° 0 mm 0 mps 704 mmHg 5%
    14:00 +44°C° 0 mm 0 mps 703 mmHg 6%
    15:00 +45°C° 0 mm 1 mps 703 mmHg 6%
    16:00 +43°C° 0 mm 1 mps 702 mmHg 7%
    17:00 +39°C° 0 mm 1 mps 702 mmHg 10%
    18:00 +34°C° 0 mm 1 mps 702 mmHg 13%
    19:00 +30°C° 0 mm 1 mps 702 mmHg 17%
    20:00 +29°C° 0 mm 1 mps 702 mmHg 20%
    21:00 +28°C° 0 mm 1 mps 703 mmHg 23%
    22:00 +28°C° 0 mm 1 mps 703 mmHg 26%
    23:00 +27°C° 0 mm 1 mps 703 mmHg 31%

    24 January, Thursday

    Time Temperature Precipitation Wind Pressure Humidity
    00:00 +26°C° 0 mm 1 mps 702 mmHg 36%
    01:00 +26°C° 0 mm 1 mps 702 mmHg 41%
    02:00 +25°C° 0 mm 1 mps 702 mmHg 44%
    03:00 +24°C° 0 mm 1 mps 703 mmHg 47%
    04:00 +24°C° 0 mm 1 mps 703 mmHg 50%
    05:00 +25°C° 0 mm 1 mps 704 mmHg 47%
    06:00 +26°C° 0 mm 1 mps 704 mmHg 44%
    07:00 +27°C° 0 mm 1 mps 705 mmHg 40%
    08:00 +30°C° 0 mm 1 mps 706 mmHg 37%
    09:00 +35°C° 0 mm 2 mps 706 mmHg 33%
    10:00 +38°C° 0 mm 2 mps 706 mmHg 30%
    11:00 +40°C° 0 mm 2 mps 705 mmHg 25%
    12:00 +43°C° 0 mm 1 mps 704 mmHg 20%
    13:00 +45°C° 0 mm 1 mps 704 mmHg 15%
    14:00 +43°C° 0 mm 1 mps 703 mmHg 17%
    15:00 +41°C° 0 mm 1 mps 702 mmHg 19%
    16:00 +39°C° 0 mm 1 mps 701 mmHg 20%
    17:00 +36°C° 0 mm 1 mps 701 mmHg 24%
    18:00 +34°C° 0 mm 1 mps 702 mmHg 28%
    19:00 +32°C° 0 mm 1 mps 702 mmHg 32%
    20:00 +31°C° 0 mm 1 mps 703 mmHg 34%
    21:00 +30°C° 0 mm 1 mps 703 mmHg 37%
    22:00 +29°C° 0 mm 1 mps 703 mmHg 40%
    23:00 +29°C° 0 mm 1 mps 703 mmHg 44%

    25 January, Friday

    Time Temperature Precipitation Wind Pressure Humidity
    00:00 +28°C° 0 mm 1 mps 703 mmHg 49%
    01:00 +27°C° 0 mm 1 mps 702 mmHg 53%
    02:00 +26°C° 0 mm 1 mps 702 mmHg 56%
    03:00 +26°C° 0 mm 1 mps 703 mmHg 59%
    04:00 +25°C° 0 mm 1 mps 703 mmHg 62%
    05:00 +26°C° 0 mm 1 mps 703 mmHg 59%
    06:00 +27°C° 0 mm 1 mps 704 mmHg 56%
    07:00 +28°C° 0 mm 1 mps 705 mmHg 53%
    08:00 +32°C° 0 mm 1 mps 705 mmHg 44%
    09:00 +36°C° 0 mm 1 mps 706 mmHg 35%
    10:00 +40°C° 0 mm 2 mps 706 mmHg 27%
    11:00 +42°C° 0 mm 1 mps 705 mmHg 23%
    12:00 +40°C° 0 mm 0 mps 704 mmHg 19%
    13:00 +42°C° 0 mm 0 mps 703 mmHg 15%
    14:00 +40°C° 0 mm 0 mps 703 mmHg 17%
    15:00 +41°C° 0 mm 1 mps 702 mmHg 19%
    16:00 +37°C° 0 mm 1 mps 702 mmHg 22%
    17:00 +36°C° 0 mm 1 mps 702 mmHg 24%
    18:00 +34°C° 0 mm 1 mps 702 mmHg 27%
    19:00 +30°C° 0 mm 0 mps 703 mmHg 30%
    20:00 +30°C° 0 mm 0 mps 703 mmHg 31%
    21:00 +29°C° 0 mm 0 mps 703 mmHg 31%
    22:00 +29°C° 0 mm 0 mps 703 mmHg 32%
    23:00 +28°C° 0 mm 0 mps 703 mmHg 33%

    26 January, Saturday

    Time Temperature Precipitation Wind Pressure Humidity
    00:00 +30°C° 0 mm 1 mps 703 mmHg 35%
    01:00 +29°C° 0 mm 1 mps 702 mmHg 36%
    02:00 +28°C° 0 mm 1 mps 702 mmHg 38%
    03:00 +28°C° 0 mm 1 mps 702 mmHg 40%
    04:00 +27°C° 0 mm 1 mps 702 mmHg 42%
    05:00 +28°C° 0 mm 1 mps 703 mmHg 40%
    06:00 +27°C° 0 mm 0 mps 703 mmHg 39%
    07:00 +28°C° 0 mm 0 mps 704 mmHg 37%
    08:00 +32°C° 0 mm 0 mps 705 mmHg 31%
    09:00 +39°C° 0 mm 1 mps 705 mmHg 24%
    10:00 +43°C° 0 mm 1 mps 706 mmHg 18%
    11:00 +42°C° 0 mm 1 mps 705 mmHg 17%
    12:00 +41°C° 0 mm 1 mps 704 mmHg 17%
    13:00 +40°C° 0 mm 1 mps 702 mmHg 16%
    14:00 +40°C° 0 mm 1 mps 702 mmHg 16%
    15:00 +40°C° 0 mm 1 mps 702 mmHg 16%
    16:00 +40°C° 0 mm 1 mps 701 mmHg 17%
    17:00 +37°C° 0 mm 1 mps 702 mmHg 19%
    18:00 +33°C° 0 mm 0 mps 702 mmHg 21%
    19:00 +31°C° 0 mm 0 mps 702 mmHg 23%
    20:00 +30°C° 0 mm 0 mps 702 mmHg 24%
    21:00 +31°C° 0 mm 1 mps 703 mmHg 26%
    22:00 +31°C° 0 mm 1 mps 703 mmHg 27%
    23:00 +30°C° 0 mm 1 mps 703 mmHg 29%
    Show more